Find Mandrake 2A

NORAD ID: 48907 Int'l Des: 2021-059 Owner: SDA/DARPA2 Country: US operational
LEOCIRCULARRETROGRADE

实时位置

正在加载3D地球...

关于 Mandrake 2A

正在加载描述...

即将过境

Passes for default location (London). Set your location on the main map for personalized predictions.

高度历史

Loading altitude history...

两行轨道根数

1 48907U 21059AE 26139.78381372 .00015150 00000-0 23783-3 0 9993
2 48907 97.7041 327.4288 0006260 97.4473 262.7491 15.53752470272719
Epoch: May 19, 2026 • Age: 7 hours

当前状态

高度 411.4 km
速度 7.67 km/s
星下点 56.07°N, 101.3°W
发射日期 Jun 30, 2021
运行时间 4.8 years
类型 other

技术详情

分类 Payload
质量 23.00 kg
干质量 23.00 kg
总质量 23.00 kg
长度 0.50 m
直径 0.50 m
跨度 0.50 m
形状 Box + pan
制造商 ADIG
平台类型 Corvus-XL
阶段状态 In Orbit
所有者/国家 SDA/DARPA2/US

Most Searched